Regional Weather Roundup
Issued by NWS

Home | Current Version | Previous Version | Text Only | Print | Product List | Glossary Off
Versions: 1 2 3 4 5 6 7 8 9 10 11 12 13 14 15 16 17 18 19 20 21 22 23 24 25 26 27 28 29 30 31 32 33 34 35 36 37 38 39 40 41 42 43 44 45 46 47 48 49 50

000
ASUS43 KIND 241109
RWRIN

WEATHER ROUNDUP FOR INDIANA
NATIONAL WEATHER SERVICE INDIANAPOLIS IN
700 AM EDT FRI MAR 24 2017

NOTE: "FAIR" INDICATES FEW OR NO CLOUDS BELOW 12,000 FEET WITH NO
SIGNIFICANT WEATHER AND/OR OBSTRUCTIONS TO VISIBILITY.

* - STATION DOES NOT REPORT WEATHER SUCH AS PRECIPITATION OR FOG.

+ - STATION NOT QUALITY CONTROLLED BY THE NATIONAL WEATHER SERVICE.
    USE DATA WITH CAUTION...ESPECIALLY DEWPOINT AND RELATIVE
    HUMIDITY OBSERVATIONS.

INZ001>003-010>013-019-020-241200-
NORTHWEST INDIANA

CITY           SKY/WX    TMP DP  RH WIND       PRES   REMARKS
GARY /AIRPORT/ MOCLDY    52  39  62 S10       29.95R
KNOX *+        PTCLDY    48  23  37 S12       29.98R
LA PORTE +     PTCLDY    46  38  74 S6        29.98R
MICHIGAN CITY+ PTCLDY    50  41  71 S13G18    29.96S
MONTICELLO +   CLOUDY    46  39  76 S6        30.01R
RENSSELAER +   PTCLDY    50  45  81 S8        30.00R
VALPARAISO     PTCLDY    49  40  71 S12       29.98R

$$

LMZ046-743>745-241200-
SOUTHERN LAKE MICHIGAN

STATION/POSITION TIME  TEMP    WIND        PRES    WAVE
                       AIR SEA DIR/SP/G            HT
                 (UTC) (F)     (DEG/KT/KT) (MB)    (FT)
BURNS HARBOR     1040   50     180/ 16/ 22 1013.9F
MICHIGAN CITY    1040   52     160/ 17/ 22   N/A

$$

INZ004-005-014>016-021>024-241200-
NORTH CENTRAL INDIANA

CITY           SKY/WX    TMP DP  RH WIND       PRES   REMARKS
ELKHART        CLOUDY    48  37  66 S7        30.00
GOSHEN         CLOUDY    50  38  63 S13       30.00R
LOGANSPORT +   CLOUDY    45  39  81 S8        30.04R
PERU/GRISSOM   MOCLDY    51  44  76 S7        30.02R
ROCHESTER +    PTCLDY    50  39  66 S6        30.02R
SOUTH BEND     PTCLDY    49  39  68 S10       29.99R
WARSAW +       CLOUDY    50  37  62 S8        30.01S

$$

INZ006>009-017-018-025>027-241200-
NORTHEAST INDIANA

CITY           SKY/WX    TMP DP  RH WIND       PRES   REMARKS
ANGOLA *+      CLEAR     48  37  66 S9        30.01R
AUBURN +       CLOUDY    50  39  66 S8        30.04R
FORT WAYNE     CLOUDY    49  42  77 S13       30.05R
HUNTINGTON +   MOCLDY    50  42  72 S7        30.04S
KENDALLVILLE + CLOUDY    49  40  69 S12       30.02R

$$

INZ028-029-035-036-043>045-051>053-241200-
WEST CENTRAL INDIANA

CITY           SKY/WX    TMP DP  RH WIND       PRES   REMARKS
CRAWFORDSVL +  CLOUDY    55  46  74 SW14      30.03R
GREENCASTLE +  CLOUDY    59  45  58 S13G20    30.05R
LAFAYETTE      PTCLDY    55  45  68 S7        30.02R
TERRE HAUTE    PTCLDY    59  47  64 S17G23    30.05R

$$

INZ030>032-037>040-046>048-054>057-064-065-241200-
CENTRAL INDIANA

CITY           SKY/WX    TMP DP  RH WIND       PRES   REMARKS
CP ATTERBURY + CLEAR     52  43  71 SE8       30.10R
COLUMBUS       CLEAR     50  45  81 S9        30.11
FISHERS *+     PTCLDY    48  45  87 SE7       30.07R
FRANKFORT +    CLOUDY    51  44  76 S3        30.05R
GREENWOOD *+   PTCLDY    56  45  68 S13       30.08R
INDIANAPOLIS   PTCLDY    54  44  69 S12       30.06R
-EAGLE CREEK   PTCLDY    55  43  63 S7        30.05R
KOKOMO +       CLOUDY    50  42  74 S9        30.05R
MARION +       CLOUDY    51  42  71 S14       30.05R
MT COMFORT *+  PTCLDY    50  41  71 S10       30.07S
SHELBYVILLE    CLEAR     54  42  64 S15       30.09R
ZIONSVILLE +   PTCLDY    50  42  75 S7        30.06R

$$

INZ033-034-041-042-049-050-058-059-241200-
EAST CENTRAL INDIANA

CITY           SKY/WX    TMP DP  RH WIND       PRES   REMARKS
MUNCIE         MOCLDY    55  42  61 S17G25    30.06R
RICHMOND +     PTCLDY    46  41  81 S14       30.13S

$$

INZ060-061-067>069-081>083-085>088-241200-
SOUTHWEST INDIANA

CITY           SKY/WX    TMP DP  RH WIND       PRES   REMARKS
EVANSVILLE     CLEAR     58  49  72 S9        30.09R
HUNTINGBURG *+ CLEAR     58  48  69 S14G22    30.12R
WASHINGTON +   CLEAR     57  46  65 CALM      30.08R

$$

INZ062-063-066-070>080-084-089>092-241200-
SOUTH CENTRAL AND SOUTHEAST INDIANA

CITY           SKY/WX    TMP DP  RH WIND       PRES   REMARKS
BEDFORD +      CLEAR     54  43  66 S7        30.11R
BLOOMINGTON    CLEAR     59  46  62 S14       30.08R
MADISON *+     CLEAR     55  39  54 S16       30.16R
NORTH VERNON + CLEAR     55  41  58 S14G20    30.12R
SEYMOUR +      CLEAR     55  43  62 S10       30.12R

$$





USA.gov is the U.S. government's official web portal to all federal, state and local government web resources and services.